Location: *
(57.8420°S, 159.8600°W)
Time: 03:15:24
(UTC+00:00)

COSMO-SKYMED 1 - Pass Details

Date: 18 May 2021
Orbit: 621 x 623 km, 97.9° (Epoch: 18 June)

Event Time Altitude Azimuth Distance (km) Brightness Sun altitude
Rises 04:01:22 0° 2° (N) 2,913 6.2 -12.0°
Reaches altitude 10° 04:03:37 10° 356° (N) 2,014 5.5 -12.3°
Maximum altitude 04:07:53 49° 280° (W) 822 3.7 -12.9°
Drops below altitude 10° 04:12:12 10° 204° (SSW) 2,039 5.3 -13.4°
Sets 04:14:29 0° 198° (SSW) 2,954 6.1 -13.7°
